Weather History for EGNH - February, 2014

Change the Weather History Date:

Thursday, February 20, 2014

  Actual Average Record
Temperature  
Mean Temperature 46 °F -  
Max Temperature 51 °F 46 °F 55 °F (1998)
Min Temperature 42 °F 37 °F 26 °F (2000)
Degree Days  
Heating Degree Days 18    
Moisture  
Dew Point 43 °F    
Average Humidity 87    
Maximum Humidity 94    
Minimum Humidity 75    
Precipitation  
Precipitation 0.03 in - - ()
Sea Level Pressure  
Sea Level Pressure 29.34 in    
Wind  
Wind Speed 17 mph ()    
Max Wind Speed 29 mph    
Max Gust Speed -    
Visibility 6.1 miles    
Events Rain    
Averages and records for this station are not official NWS values.
T = Trace of Precipitation, MM = Missing Value Source: Averaged Metar Reports

Daily Weather History Graph

Daily Weather History Graph

Search for Another Location

Airport or City:

Trip Planner

Search our weather history database for the weather conditions in past years. The results will help you decide how hot, cold, wet, or windy it might be!

Date:

Astronomy

Feb. 20, 2014 Rise Set
Actual Time 7:21 AM GMT 5:31 PM GMT
Civil Twilight 6:45 AM GMT 6:07 PM GMT
Nautical Twilight 6:04 AM GMT 6:48 PM GMT
Astronomical Twilight 5:23 AM GMT 7:29 PM GMT
Moon No Moon Rise 9:04 AM GMT (2/20)
Length of Visible Light 11h 22m
Length of Day
10h 10m
Waning Gibbous, 73% of the Moon is Illuminated
Feb 20
Waning Gibbous
Feb 22
Last Quarter
Mar 1
New
Mar 8
First Quarter
Mar 16
Full

Hourly Weather History & Observations

Time (GMT) Temp. Windchill Dew Point Humidity Pressure Visibility Wind Dir Wind Speed Gust Speed Precip Events Conditions
12:00 AM 48 °F - 47 °F 93%  in - SSE 18.4 mph - -  
1:00 AM 48 °F - 47 °F 93%  in - SSE 18.4 mph - -  
2:00 AM 49 °F - 47 °F 89%  in - SSE 17.3 mph - -  
3:00 AM 49 °F - 47 °F 91%  in - SSE 18.4 mph - -  
4:00 AM 50 °F - 47 °F 87%  in - SSE 19.6 mph - -  
5:00 AM 50 °F - 48 °F 89%  in - South 15.0 mph - -  
6:00 AM 50 °F - 48 °F 89%  in - SSE 19.6 mph - -  
6:20 AM 50.0 °F - 48.2 °F 94% 29.27 in 6.2 mi SSE 18.4 mph - N/A   Mostly Cloudy
6:50 AM 51.8 °F - 48.2 °F 88% 29.27 in 6.2 mi SSE 21.9 mph - N/A   Scattered Clouds
7:00 AM 51 °F - 48 °F 86%  in - South 19.6 mph - -  
7:20 AM 51.8 °F - 48.2 °F 88% 29.27 in 6.2 mi SSE 21.9 mph - N/A Rain Light Rain
7:50 AM 51.8 °F - 48.2 °F 88% 29.30 in 6.2 mi South 24.2 mph - N/A   Mostly Cloudy
8:00 AM 50 °F - 47 °F 84%  in - SSW 26.5 mph - -  
8:20 AM 48.2 °F - 44.6 °F 87% 29.30 in 6.2 mi SSW 23.0 mph - N/A   Scattered Clouds
8:50 AM 48.2 °F - 44.6 °F 87% 29.33 in 6.2 mi SW 25.3 mph - N/A Rain Light Rain Showers
9:00 AM 47 °F - 43 °F 82%  in - WSW 28.8 mph - -  
9:20 AM 46.4 °F 38.3 °F 42.8 °F 87% 29.33 in 6.2 mi WSW 23.0 mph - N/A   Mostly Cloudy
9:50 AM 46.4 °F 39.2 °F 42.8 °F 87% 29.33 in 6.2 mi WSW 18.4 mph - N/A   Scattered Clouds
10:00 AM 45 °F - 42 °F 86%  in - WSW 19.6 mph - -  
10:20 AM 48.2 °F - 44.6 °F 87% 29.33 in 6.2 mi SW 19.6 mph - N/A   Partly Cloudy
10:50 AM 48.2 °F - 42.8 °F 82% 29.36 in 6.2 mi SW 17.3 mph - N/A   Partly Cloudy
11:00 AM 47 °F - 42 °F 79%  in - SW 19.6 mph - -  
11:20 AM 46.4 °F 39.5 °F 42.8 °F 87% 29.36 in 6.2 mi SW 17.3 mph - N/A   Scattered Clouds
11:50 AM 48.2 °F - 44.6 °F 87% 29.36 in 6.2 mi SSW 13.8 mph - N/A   Scattered Clouds
12:00 PM 49 °F - 44 °F 77%  in - SW 13.8 mph - -  
12:20 PM 46.4 °F 40.4 °F 42.8 °F 87% 29.33 in 6.2 mi SW 13.8 mph - N/A Rain Light Rain Showers
12:50 PM 46.4 °F 39.5 °F 42.8 °F 87% 29.36 in 4.3 mi SSW 17.3 mph - N/A Rain Rain
1:00 PM 45 °F - 43 °F 90%  in - SW 18.4 mph - -  
1:20 PM 46.4 °F 40.7 °F 44.6 °F 93% 29.33 in 6.2 mi SSW 12.7 mph - N/A   Scattered Clouds
1:50 PM 46.4 °F 40.1 °F 44.6 °F 93% 29.33 in 6.2 mi South 15.0 mph - N/A   Scattered Clouds
2:00 PM 45 °F - 43 °F 90%  in - SSW 13.8 mph - -  
2:20 PM 46.4 °F 38.7 °F 44.6 °F 93% 29.33 in 6.2 mi SSW 20.7 mph - N/A   Scattered Clouds
2:50 PM 46.4 °F 39.0 °F 42.8 °F 87% 29.33 in 6.2 mi SSW 19.6 mph - N/A   Scattered Clouds
3:00 PM 47 °F - 44 °F 85%  in - SW 21.9 mph - -  
3:20 PM 44.6 °F 36.9 °F 42.8 °F 93% 29.33 in 6.2 mi WSW 18.4 mph - N/A   Mostly Cloudy
3:50 PM 44.6 °F 36.4 °F 42.8 °F 93% 29.33 in 6.2 mi WSW 20.7 mph - N/A   Scattered Clouds
4:00 PM 44 °F - 42 °F 88%  in - West 24.2 mph - -  
4:20 PM 44.6 °F 36.9 °F 41.0 °F 87% 29.36 in 6.2 mi WSW 18.4 mph - N/A   Scattered Clouds
4:50 PM 44.6 °F 37.4 °F 41.0 °F 87% 29.36 in 6.2 mi WSW 16.1 mph - N/A   Scattered Clouds
5:00 PM 44 °F - 40 °F 79%  in - WSW 19.6 mph - -  
5:20 PM 44.6 °F 37.8 °F 41.0 °F 87% 29.36 in 6.2 mi WSW 15.0 mph - N/A   Partly Cloudy
5:50 PM 42.8 °F 35.1 °F 41.0 °F 93% 29.36 in 6.2 mi SW 16.1 mph - N/A   Partly Cloudy
6:00 PM 43 °F - 39 °F 81%  in - WSW 19.6 mph - -  
6:20 PM 42.8 °F 35.4 °F 39.2 °F 87% 29.39 in 6.2 mi WSW 15.0 mph - N/A   Partly Cloudy
6:50 PM 42.8 °F 37.0 °F 41.0 °F 93% 29.39 in 6.2 mi SW 10.4 mph - N/A   Partly Cloudy
7:00 PM 43 °F - 41 °F 88%  in - WSW 13.8 mph - -  
7:20 PM 44.6 °F 37.2 °F 41.0 °F 87% 29.39 in 6.2 mi SW 17.3 mph - N/A   Partly Cloudy
7:50 PM 42.8 °F 34.5 °F 41.0 °F 93% 29.39 in 6.2 mi SW 18.4 mph - N/A   Partly Cloudy
8:00 PM 43 °F - 40 °F 83%  in - WSW 21.9 mph - -  
8:20 PM 42.8 °F 35.8 °F 41.0 °F 93% 29.42 in 6.2 mi SW 13.8 mph - N/A   Partly Cloudy
8:50 PM 42.8 °F 34.8 °F 39.2 °F 87% 29.42 in 6.2 mi SW 17.3 mph - N/A   Partly Cloudy
9:00 PM 44 °F - 39 °F 75%  in - WSW 20.7 mph - -  
10:00 PM 43 °F - 38 °F 77%  in - WSW 17.3 mph - -  
11:00 PM 42 °F - 37 °F 76%  in - SW 12.7 mph - -